Location: Spruce Knob
(38.6995°N, 79.5330°W)
Time: 22:27:36
(UTC-04:00)

A-11 Canister half - Pass Details

Date: 03 February 2022
Orbit: 1513 x 1686 km, 47.2° (Epoch: 24 May)

Event Time Altitude Azimuth Distance (km) Brightness Sun altitude
Rises 16:46:50 0° 273° (W) 4,797 12.7 9.0°
Reaches altitude 10° 16:50:07 10° 278° (W) 3,788 12.1 8.4°
Maximum altitude 16:59:24 52° 354° (N) 1,863 9.5 6.8°
Drops below altitude 10° 17:08:25 10° 69° (ENE) 3,684 10.4 5.2°
Sets 17:11:35 0° 75° (ENE) 4,658 10.9 4.7°
